sat.trackr.live / text

‹ back to catalog

STARLINK-31767

NORAD 59605 · 2024-080E

PAYLOAD ACTIVE UNKNOWN

§ Identity

Operator
Country
US
Launch date
2024-04-28
Launch site
AFETR
Launch vehicle
Mass (kg)
RCS (m²)

Purposes: comms

External: N2YO · Heavens-Above · Gunter

§ Orbital elements

Epoch: 2026-05-24T21:14:41.921952Z

Period
94.27 min
Inclination
43.0036°
Eccentricity
0.0001008
Mean motion
15.27580238 rev/d
Perigee alt
482.4 km
Apogee alt
483.7 km
Semi-major
6,861.2 km
B*
4.2911e-5
RAAN
327.7825°
Arg perigee
281.6971°
Mean anomaly
78.3767°
Rev number
11,618

§ Raw data

STARLINK-317671 59605U 24080E   26144.88520743  .00000919  00000+0  42911-4 0  99922 59605  43.0036 327.7825 0001008 281.6971  78.3767 15.27580238116186

JSON: /api/v1/satellites/59605 · /tle

For live sub-satellite position, see the globe view (requires WebGL).

§ Visibility from observer

Set your observer location to see the next 7 days of passes ≥ 10°. The values pass through the URL so the page stays shareable.

No JS? Fill the form by hand. The geolocation button needs JavaScript.